Location: Avon School (historical)
(37.7514°N, 90.2201°W)
Time: 08:51:16
(UTC+00:00)

ISS - Pass Details

Date: 19 October 2024
Orbit: 407 x 420 km, 51.6° (Epoch: 02 November)

Event Time Altitude Azimuth Distance (km) Brightness Sun altitude
Exits shadow 09:49:05 16° 87° (E) 1,166 -0.7 -29.2°
Drops below altitude 10° 09:50:02 10° 75° (ENE) 1,467 -0.1 -29.0°
Enters shadow 10:48:09 -66° 232° (SW) 12,076 3.6 -17.6°
Maximum altitude 11:23:55 31° 327° (NNW) 737 -2.8 -10.5°
Sets 11:29:08 0° 44° (NE) 2,332 0.6 -9.5°
